GW0058 Weather Reports


time (UTC)temp
C
wind
direction
speed
KPH
gust
KPH
rain 1hr
cm
rain 24hr
cm
rain mn
cm
humidity
%
barometer
mb
20260506235051 17 340 4.8 22.5 0.00 0.00 0.00 81 1012.8
20260506234610 17 305 6.4 22.5 0.00 0.00 0.00 80 1012.8
20260506234051 17 34 4.8 12.9 0.00 0.00 0.00 80 1012.8
20260506233550 17 16 3.2 17.7 0.00 0.00 0.00 80 1012.8
20260506233057 17 314 4.8 17.7 0.00 0.00 0.00 80 1012.7
20260506232549 17 309 6.4 16.1 0.00 0.00 0.00 80 1012.8
20260506232050 17 355 6.4 16.1 0.00 0.00 0.00 80 1012.8
20260506231551 17 13 3.2 12.9 0.00 0.00 0.00 80 1012.4
20260506231049 17 338 4.8 16.1 0.00 0.00 0.00 80 1012.4
20260506230551 17 319 8.0 19.3 0.00 0.00 0.00 79 1012.4
20260506230101 17 102 4.8 19.3 0.00 0.00 0.00 79 1012.3
20260506225550 17 249 9.7 19.3 0.00 0.00 0.00 78 1012.4
20260506225050 18 272 8.0 19.3 0.00 0.00 0.00 78 1012.4
20260506224554 18 309 8.0 19.3 0.00 0.00 0.00 78 1012.5
20260506224050 18 15 6.4 17.7 0.00 0.00 0.00 79 1012.6
20260506223550 18 286 6.4 19.3 0.00 0.00 0.00 79 1012.6
20260506223058 17 281 8.0 19.3 0.00 0.00 0.00 80 1012.3
20260506222554 17 306 6.4 17.7 0.00 0.00 0.00 80 1012.3
20260506222050 18 305 4.8 17.7 0.00 0.00 0.00 80 1012.4
20260506221601 17 288 8.0 17.7 0.00 0.00 0.00 79 1012.4
20260506221050 18 297 4.8 20.9 0.00 0.00 0.00 79 1012.3
20260506220550 18 350 6.4 20.9 0.00 0.00 0.00 77 1012.3
20260506220053 19 311 4.8 17.7 0.00 0.00 0.00 77 1012.3
20260506215546 20 275 6.4 17.7 0.00 0.00 0.00 75 1012.3
20260506215049 20 60 4.8 20.9 0.00 0.00 0.00 74 1012.3
20260506214548 20 317 8.0 20.9 0.00 0.00 0.00 75 1012.3
20260506214050 20 352 6.4 16.1 0.00 0.00 0.00 74 1012.2
20260506213555 21 311 4.8 20.9 0.00 0.00 0.00 71 1012.0
20260506213055 21 315 4.8 20.9 0.00 0.00 0.00 72 1012.0
20260506212550 22 248 6.4 20.9 0.00 0.00 0.00 73 1011.9
20260506212050 21 328 4.8 19.3 0.00 0.00 0.00 72 1012.1
20260506211553 21 5 8.0 20.9 0.00 0.00 0.00 73 1012.0
20260506211051 22 271 8.0 20.9 0.00 0.00 0.00 70 1012.1
20260506210550 22 342 9.7 20.9 0.00 0.00 0.00 71 1012.0
20260506210057 22 294 8.0 25.7 0.00 0.00 0.00 71 1012.1
20260506205549 22 16 9.7 25.7 0.00 0.00 0.00 71 1012.0
20260506205050 22 15 9.7 24.1 0.00 0.00 0.00 73 1011.8
20260506204559 22 62 9.7 24.1 0.00 0.00 0.00 72 1011.9
20260506204049 22 335 9.7 20.9 0.00 0.00 0.00 72 1012.0
20260506203550 22 355 9.7 22.5 0.00 0.00 0.00 70 1012.0
20260506203056 23 296 8.0 22.5 0.00 0.00 0.00 70 1012.0
20260506202550 23 249 6.4 17.7 0.00 0.00 0.00 71 1011.9
20260506202048 24 305 3.2 19.3 0.00 0.00 0.00 71 1011.9
20260506201553 23 315 6.4 19.3 0.00 0.00 0.00 72 1012.0
20260506201048 23 94 8.0 24.1 0.00 0.00 0.00 73 1012.2
20260506200550 23 320 11.3 24.1 0.00 0.00 0.00 72 1012.2
20260506200054 23 296 11.3 22.5 0.00 0.00 0.00 73 1012.1
20260506195550 22 5 6.4 20.9 0.00 0.00 0.00 76 1012.1
20260506195050 22 319 8.0 20.9 0.00 0.00 0.00 76 1012.0
20260506194549 22 281 9.7 20.9 0.00 0.00 0.00 75 1012.0
20260506194050 23 344 8.0 20.9 0.00 0.00 0.00 74 1011.8
20260506193547 25 18 6.4 17.7 0.00 0.00 0.00 72 1011.7
20260506193053 26 298 1.6 8.0 0.00 0.00 0.00 73 1011.6
20260506192550 26 349 1.6 9.7 0.00 0.00 0.00 72 1011.5
20260506192050 27 9 0.0 11.3 0.00 0.00 0.00 71 1011.6
20260506191558 27 59 3.2 11.3 0.00 0.00 0.00 68 1011.5
20260506191053 28 69 1.6 11.3 0.00 0.00 0.00 70 1011.6
20260506190548 27 290 3.2 11.3 0.00 0.00 0.00 69 1011.7
20260506190055 27 360 3.2 6.4 0.00 0.00 0.00 71 1011.8
20260506185550 26 287 1.6 6.4 0.00 0.00 0.00 73 1011.8
20260506185050 26 51 1.6 8.0 0.00 0.00 0.00 73 1012.0
20260506184556 27 5 3.2 8.0 0.00 0.00 0.00 70 1012.0
20260506184050 27 55 1.6 12.9 0.00 0.00 0.00 70 1012.0
20260506183547 26 331 1.6 12.9 0.00 0.00 0.00 73 1011.8
20260506183055 26 140 4.8 12.9 0.00 0.00 0.00 71 1011.8
20260506182550 27 169 3.2 12.9 0.00 0.00 0.00 72 1011.9
20260506182050 26 100 1.6 8.0 0.00 0.00 0.00 72 1011.9
20260506181602 26 133 1.6 9.7 0.00 0.00 0.00 75 1011.9
20260506181050 26 167 3.2 9.7 0.00 0.00 0.00 74 1012.0
20260506180554 26 0 1.6 11.3 0.00 0.00 0.00 76 1011.9
20260506180054 26 47 1.6 11.3 0.00 0.00 0.00 73 1011.9
20260506175550 26 77 1.6 6.4 0.00 0.00 0.00 74 1011.9
20260506175052 25 103 0.0 8.0 0.00 0.00 0.00 75 1011.9
20260506174553 25 175 0.0 8.0 0.00 0.00 0.00 78 1011.9
20260506174050 25 107 1.6 6.4 0.00 0.00 0.00 74 1012.0
20260506173550 25 285 3.2 8.0 0.00 0.00 0.00 77 1012.0
20260506173120 24 14 3.2 8.0 0.00 0.00 0.00 75 1011.9
20260506172549 24 19 1.6 6.4 0.00 0.00 0.00 76 1012.1
20260506172053 23 0 1.6 6.4 0.00 0.00 0.00 79 1012.3
20260506171557 22 117 3.2 14.5 0.00 0.00 0.00 81 1012.2
20260506171050 22 254 1.6 14.5 0.00 0.00 0.00 84 1012.4
20260506170550 21 40 1.6 6.4 0.00 0.00 0.00 84 1012.4
20260506170105 21 69 1.6 6.4 0.00 0.00 0.00 84 1012.5
20260506165547 21 50 1.6 9.7 0.00 0.00 0.00 85 1012.5
20260506165050 20 0 1.6 14.5 0.00 0.00 0.00 87 1012.6
20260506164553 20 0 1.6 14.5 0.00 0.00 0.00 87 1012.6
20260506164050 20 11 3.2 12.9 0.00 0.00 0.00 87 1012.8
20260506163550 20 64 3.2 14.5 0.00 0.00 0.00 87 1012.9
20260506163059 20 11 3.2 14.5 0.00 0.00 0.00 85 1013.0
20260506162548 20 32 4.8 14.5 0.00 0.00 0.00 84 1013.0
20260506162050 20 35 4.8 20.9 0.00 0.00 0.00 83 1013.0
20260506161553 22 274 8.0 20.9 0.00 0.00 0.00 77 1013.0
20260506161050 24 28 0.0 3.2 0.00 0.00 0.00 86 1012.8
20260506160550 24 0 0.0 3.2 0.00 0.00 0.00 87 1012.7
20260506160052 24 37 0.0 4.8 0.00 0.00 0.00 86 1012.8
20260506155553 24 360 0.0 4.8 0.00 0.00 0.00 88 1012.7
20260506155053 24 0 0.0 3.2 0.00 0.00 0.00 88 1012.8
20260506154608 23 0 0.0 3.2 0.00 0.00 0.00 88 1012.6
20260506154051 23 0 0.0 3.2 0.00 0.00 0.00 89 1012.5
20260506153550 23 53 0.0 4.8 0.00 0.00 0.00 88 1012.5
20260506153054 23 0 0.0 4.8 0.00 0.00 0.00 88 1012.4
20260506152550 23 0 0.0 3.2 0.00 0.00 0.00 89 1012.1
20260506152048 23 0 0.0 4.8 0.00 0.00 0.00 89 1012.0
20260506151555 23 144 1.6 4.8 0.00 0.00 0.00 89 1011.7
20260506151050 23 0 0.0 3.2 0.00 0.00 0.00 89 1011.6
20260506150550 23 0 1.6 4.8 0.00 0.00 0.00 89 1011.4
20260506150051 23 0 0.0 4.8 0.00 0.00 0.00 90 1011.4
20260506145547 23 146 0.0 4.8 0.00 0.00 0.00 90 1011.4
20260506145047 23 0 0.0 4.8 0.00 0.00 0.00 90 1011.4
20260506144556 23 0 0.0 4.8 0.00 0.00 0.00 90 1011.4
20260506144050 23 0 0.0 6.4 0.00 0.00 0.00 90 1011.5
20260506143546 23 60 1.6 6.4 0.00 0.00 0.00 91 1011.2
20260506143051 23 140 0.0 4.8 0.00 0.00 0.00 91 1011.2
20260506142546 23 0 0.0 3.2 0.00 0.00 0.00 91 1011.1
20260506142045 23 0 0.0 1.6 0.00 0.00 0.00 91 1011.3
20260506141555 23 0 0.0 0.0 0.00 0.00 0.00 91 1011.4
20260506141051 23 0 0.0 1.6 0.00 0.00 0.00 91 1011.3
20260506140547 23 0 0.0 1.6 0.00 0.00 0.00 91 1011.3
20260506140053 23 24 0.0 4.8 0.00 0.00 0.00 91 1011.3
20260506135546 23 0 0.0 9.7 0.00 0.00 0.00 91 1011.0
20260506135046 23 63 0.0 9.7 0.00 0.00 0.00 91 1010.6
20260506134547 23 0 1.6 9.7 0.00 0.00 0.00 92 1010.4
20260506134050 23 156 0.0 6.4 0.00 0.00 0.00 92 1010.3
20260506133548 23 0 0.0 8.0 0.00 0.00 0.00 92 1010.3
20260506133109 22 59 3.2 8.0 0.00 0.00 0.00 92 1010.1
20260506132547 22 111 3.2 8.0 0.00 0.00 0.00 92 1010.2
20260506132047 22 116 1.6 9.7 0.00 0.00 0.00 92 1010.1
20260506131553 22 0 0.0 9.7 0.00 0.00 0.00 92 1010.2
20260506131046 22 109 1.6 4.8 0.00 0.00 0.00 92 1010.2
20260506130546 22 15 0.0 6.4 0.00 0.00 0.00 92 1010.0
20260506130119 22 0 1.6 6.4 0.00 0.00 0.00 92 1010.0
20260506125545 22 84 0.0 6.4 0.00 0.00 0.00 92 1009.9
20260506125046 22 0 0.0 3.2 0.00 0.00 0.00 92 1010.0
20260506124550 22 0 0.0 3.2 0.00 0.00 0.00 92 1009.8
20260506124045 22 0 0.0 3.2 0.00 0.00 0.00 92 1009.8
20260506123547 22 142 0.0 3.2 0.00 0.00 0.00 92 1009.9
20260506123053 22 149 0.0 3.2 0.00 0.00 0.00 92 1009.9
20260506122545 22 0 0.0 3.2 0.00 0.00 0.00 92 1009.9
20260506122045 22 0 0.0 3.2 0.00 0.00 0.00 92 1009.9
20260506121554 22 0 0.0 1.6 0.00 0.00 0.00 92 1009.9
20260506121048 22 0 0.0 1.6 0.00 0.00 0.00 92 1010.0
20260506120545 22 0 0.0 1.6 0.00 0.00 0.00 92 1009.9
20260506120052 22 0 0.0 1.6 0.00 0.00 0.00 91 1009.9
20260506115546 22 0 0.0 1.6 0.00 0.00 0.00 91 1009.9
20260506115047 22 0 0.0 3.2 0.00 0.00 0.00 91 1009.8
20260506114627 22 0 0.0 3.2 0.00 0.00 0.00 91 1009.7
20260506114047 22 0 0.0 3.2 0.00 0.00 0.00 91 1009.6
20260506113549 22 0 0.0 3.2 0.00 0.00 0.00 91 1009.7
20260506113053 22 0 0.0 3.2 0.00 0.00 0.00 91 1009.7
20260506112548 22 0 0.0 4.8 0.00 0.00 0.00 91 1009.7
20260506112053 22 0 0.0 6.4 0.00 0.00 0.00 91 1009.7
20260506111552 22 182 1.6 6.4 0.00 0.00 0.00 91 1009.5
20260506111050 22 111 1.6 6.4 0.00 0.00 0.00 91 1009.6
20260506110550 22 165 1.6 6.4 0.00 0.00 0.00 91 1009.6
20260506110058 22 170 1.6 6.4 0.00 0.00 0.00 91 1009.5
20260506105548 22 161 1.6 8.0 0.00 0.00 0.00 91 1009.5
20260506105050 22 188 1.6 8.0 0.00 0.00 0.00 91 1009.5
20260506104618 22 177 1.6 8.0 0.00 0.00 0.00 91 1009.5
20260506104048 22 119 1.6 11.3 0.00 0.00 0.00 91 1009.5
20260506103549 22 179 4.8 11.3 0.00 0.00 0.00 91 1009.5
20260506103052 22 0 1.6 6.4 0.00 0.00 0.00 91 1009.5
20260506102551 22 181 3.2 8.0 0.00 0.00 0.00 91 1009.5
20260506102051 22 111 3.2 8.0 0.00 0.00 0.00 91 1009.3
20260506101551 22 154 3.2 11.3 0.00 0.00 0.00 91 1009.4
20260506101050 22 186 4.8 11.3 0.00 0.00 0.00 90 1009.3
20260506100550 23 147 3.2 9.7 0.00 0.00 0.00 90 1009.4
20260506100053 23 166 3.2 8.0 0.00 0.00 0.00 90 1009.4
20260506095554 23 181 1.6 9.7 0.00 0.00 0.00 90 1009.3
20260506095050 23 101 1.6 9.7 0.00 0.00 0.00 90 1009.3
20260506094554 23 158 4.8 11.3 0.00 0.00 0.00 90 1009.3
20260506094046 23 196 4.8 12.9 0.00 0.00 0.00 90 1009.2
20260506093550 23 172 4.8 12.9 0.00 0.00 0.00 90 1009.1
20260506093049 23 170 4.8 12.9 0.00 0.00 0.00 90 1009.0
20260506092548 23 132 3.2 11.3 0.00 0.00 0.00 90 1008.9
20260506092050 23 165 4.8 11.3 0.00 0.00 0.00 90 1009.0
20260506091556 23 190 4.8 16.1 0.00 0.00 0.00 90 1009.0
20260506091050 23 159 6.4 16.1 0.00 0.00 0.00 90 1009.0
20260506090549 23 174 3.2 11.3 0.00 0.00 0.00 90 1009.0
20260506090052 23 157 4.8 11.3 0.00 0.00 0.00 90 1008.9
20260506085550 23 177 4.8 12.9 0.00 0.00 0.00 90 1008.9
20260506085050 23 162 3.2 12.9 0.00 0.00 0.00 90 1009.0
20260506084550 23 178 3.2 12.9 0.00 0.00 0.00 90 1008.9
20260506084050 23 144 3.2 11.3 0.00 0.00 0.00 90 1008.8
20260506083550 23 178 4.8 14.5 0.00 0.00 0.00 90 1009.0
20260506083055 23 204 6.4 14.5 0.00 0.00 0.00 90 1009.0
20260506082547 23 156 4.8 17.7 0.00 0.00 0.00 90 1008.9
20260506082050 23 207 6.4 17.7 0.00 0.00 0.00 90 1009.0
20260506081600 23 169 6.4 12.9 0.00 0.00 0.00 90 1008.9
20260506081050 23 167 6.4 14.5 0.00 0.00 0.00 90 1008.9
20260506080550 23 188 4.8 14.5 0.00 0.00 0.00 90 1009.1
20260506073053 23 139 6.4 14.5 0.00 0.00 0.00 90 1009.2
20260506072552 23 158 6.4 12.9 0.00 0.00 0.00 89 1009.3
20260506072050 23 149 3.2 11.3 0.00 0.00 0.00 89 1009.5
20260506071610 23 146 3.2 12.9 0.00 0.00 0.00 89 1009.6
20260506071047 23 161 4.8 22.5 0.00 0.00 0.00 89 1009.5
20260506070550 23 184 8.0 22.5 0.00 0.00 0.00 89 1009.5
20260506062050 23 161 6.4 22.5 0.00 0.00 0.00 89 1009.5
20260506061558 23 168 9.7 22.5 0.00 0.00 0.00 89 1009.6
20260506061050 23 166 8.0 20.9 0.00 0.00 0.00 89 1009.6
20260506060553 23 162 6.4 16.1 0.00 0.00 0.00 89 1009.6
20260506051050 23 169 4.8 17.7 0.00 0.00 0.00 88 1009.8
20260506050547 23 144 8.0 14.5 0.00 0.00 0.00 88 1009.8
20260506045052 23 199 6.4 16.1 0.00 0.00 0.00 88 1009.7
20260506044608 23 167 4.8 14.5 0.00 0.00 0.00 88 1009.7
20260506044047 23 153 6.4 14.5 0.00 0.00 0.00 88 1009.6
20260506043551 23 168 4.8 14.5 0.00 0.00 0.00 88 1009.7
20260506043056 23 233 4.8 16.1 0.00 0.00 0.00 88 1009.6
20260506042550 23 132 4.8 16.1 0.00 0.00 0.00 88 1009.5
20260506042049 23 126 6.4 17.7 0.00 0.00 0.00 88 1009.5
20260506041556 23 114 6.4 17.7 0.00 0.00 0.00 88 1009.5
20260506041050 23 142 6.4 17.7 0.00 0.00 0.00 88 1009.4
20260506040548 23 169 4.8 17.7 0.00 0.00 0.00 88 1009.3
20260506040054 24 186 6.4 14.5 0.00 0.00 0.00 88 1009.3
20260506035549 24 163 4.8 14.5 0.00 0.00 0.00 88 1009.3
20260506035048 24 169 6.4 14.5 0.00 0.00 0.00 88 1009.1
20260506034600 24 150 3.2 12.9 0.00 0.00 0.00 88 1009.1
20260506034046 23 148 4.8 12.9 0.00 0.00 0.00 88 1009.0
20260506033546 23 169 3.2 9.7 0.00 0.00 0.00 89 1008.9
20260506033054 23 163 1.6 8.0 0.00 0.00 0.00 88 1009.0
20260506032548 23 159 1.6 8.0 0.00 0.00 0.00 88 1008.9
20260506032046 23 157 1.6 11.3 0.00 0.00 0.00 88 1008.8
20260506031555 23 143 3.2 11.3 0.00 0.00 0.00 88 1008.7
20260506031051 23 135 3.2 11.3 0.00 0.00 0.00 87 1008.6
20260506030549 23 139 1.6 9.7 0.00 0.00 0.00 87 1008.6
20260506030051 23 139 3.2 9.7 0.00 0.00 0.00 87 1008.5
20260506025545 23 141 3.2 8.0 0.00 0.00 0.00 87 1008.4
20260506025048 23 65 1.6 8.0 0.00 0.00 0.00 86 1008.5
20260506024554 24 145 3.2 8.0 0.00 0.00 0.00 86 1008.4
20260506024045 24 126 0.0 8.0 0.00 0.00 0.00 86 1008.3
20260506023547 24 0 1.6 9.7 0.00 0.00 0.00 85 1008.2
20260506023055 24 145 1.6 9.7 0.00 0.00 0.00 85 1008.2
20260506022545 24 173 1.6 9.7 0.00 0.00 0.00 85 1008.1
20260506022045 24 88 0.0 9.7 0.00 0.00 0.00 85 1007.9
20260506021558 24 129 3.2 9.7 0.00 0.00 0.00 85 1007.8
20260506021048 24 149 3.2 8.0 0.00 0.00 0.00 85 1007.6
20260506020547 24 132 1.6 6.4 0.00 0.00 0.00 84 1007.5
20260506020052 24 135 1.6 6.4 0.00 0.00 0.00 84 1007.6
20260506015547 25 120 1.6 6.4 0.00 0.00 0.00 84 1007.5
20260506015046 25 137 0.0 6.4 0.00 0.00 0.00 83 1007.4
20260506014554 25 131 1.6 6.4 0.00 0.00 0.00 83 1007.4
20260506014049 25 152 1.6 6.4 0.00 0.00 0.00 82 1007.4
20260506013548 25 0 0.0 6.4 0.00 0.00 0.00 82 1007.2
20260506013050 25 0 0.0 3.2 0.00 0.00 0.00 82 1007.2
20260506012547 25 0 0.0 3.2 0.00 0.00 0.00 81 1007.2
20260506012048 25 0 0.0 8.0 0.00 0.00 0.00 81 1007.3
20260506011554 25 114 1.6 8.0 0.00 0.00 0.00 80 1007.2
20260506011048 25 150 1.6 4.8 0.00 0.00 0.00 80 1007.1
20260506010550 25 0 0.0 3.2 0.00 0.00 0.00 79 1007.3
20260506010057 26 0 0.0 1.6 0.00 0.00 0.00 77 1007.3
20260506005547 26 0 0.0 4.8 0.00 0.00 0.00 77 1007.2
20260506005047 26 0 0.0 4.8 0.00 0.00 0.00 76 1007.2
20260506004552 26 151 0.0 9.7 0.00 0.00 0.00 76 1007.2
20260506004047 26 173 3.2 11.3 0.00 0.00 0.00 75 1007.2
20260506003552 27 157 4.8 11.3 0.00 0.00 0.00 74 1007.0
20260506003059 27 159 3.2 9.7 0.00 0.00 0.00 74 1007.1
20260506002550 27 150 1.6 8.0 0.00 0.00 0.00 74 1007.2
20260506002049 27 153 3.2 12.9 0.00 0.00 0.00 74 1007.1
20260506001604 27 128 4.8 12.9 0.00 0.00 0.00 73 1007.1
20260506001051 27 134 1.6 11.3 0.00 0.00 0.00 73 1007.0
20260506000547 27 166 1.6 11.3 0.00 0.00 0.00 73 1006.9
20260506000055 27 182 3.2 11.3 0.00 0.00 0.00 72 1006.9
20260505235547 27 0 3.2 8.0 0.00 0.00 0.00 72 1006.9